CZ-4 DEB, 26128

Orbit data source: Space-Track

CZ-4 DEB, 26128 is space debris in SSO originally from a launch on Thu, 14 Oct 1999 UTC launched from the Taiyaun Space Center, China (TSC). Debris objects in space refer to the collection of defunct objects orbiting the Earth. Examples of debris include non-operational satellites, rocket bodies, and fragments generated from explosions, collisions, or faulty payload assembly.

Loading next visibility...
Identifier
26128, 1999-057Q
Orbit
SSO
Country
Flag of CNCN / PRC
Related business
Manufacturer
Unknown
Mission
Spacecraft
Bus & Motor
Unknown
Mass
Unknown
Launch date (UTC)
1999-10-14 (26 years ago)
Launch vehicle
Unknown
Launch site
Taiyaun Space Center, China (TSC)
Object type
Payload
Rocket body
Debris
Shape & HBR
Unknown shape, 0.1 m
Radar Cross Section
Small (<0.1 m²)

Expand to show TLE details & history
Last TLE update: 16 hours ago

TLE from 16 hours ago
0 CZ-4 DEB
1 26128U 99057Q   26093.50668461  .00015558  00000-0  10289-2 0  9991
2 26128  98.6816 290.5006 0019537 251.1488 162.4697 15.07327991404316
Epoch: 2026-04-03T12:09Z
TLE epoch observation values (Epoch: 2026-04-03T12:09:37.550Z)
Latitude
52.90652°
Longitude
-95.3318°
Altitude
565.906 km
Speed
7.576 km/s
True Right ascension
18h 35m 39s
True Declination
52° 44' 11"
Sunlit
Object was in daylight at epoch
Visualization orbit readout
Latitude
Unknown
Longitude
Unknown
Altitude
Unknown
Speed
Unknown
Apparent Right ascension
Unknown
Apparent Declination
Unknown
Sunlit
N/A
Visualization observer readout
Local Sidereal Time
09:53:36
Azimuth
Unknown
Elevation
Unknown
Doppler factor
Unknown
Orbital elements
Apogee altitude
554.929 km
Perigee altitude
527.892 km
Semi-major axis
6,919.547 km
Eccentricity
0.00195
Inclination
98.6816°
RAAN
290.5006°
Arg. of periapsis
251.1488°
True anomaly
162.53698°
Mean anomaly
162.4697°
Eccentric anomaly
162.50335°
Mean motion
3.77074 °/min
Orbital period
95.47 mins
BSTAR
0.0010289
Loading maneuver chart data...
Computing Atmospheric mass density...
Loading historical data...
Loading historical data...
Loading historical data...
Loading historical data...
Loading historical data...
Loading historical data...
Loading historical data...

Documentation

Showing up to 5 results
|